This demonstration page uses our WeatherBlox Daily Observations layout. Learn more.

40.92945, -100.16068

Hourly Observations for March 5, 2015

Temp ( °F °C ) Dew Point ( °F °C ) Humidity (%) Winds ( mph kmh ) Pressure ( in mb ) Visibility ( mi km ) Precip ( " mm )
12:15 am 00:15 Clear 8 -13.1 1 -17.2 72 72 Calm 30.65 1038 10 16.0934 N/A
12:35 am 00:35 Clear 8 -13.6 1 -17.1 75 75 Calm 30.62 1037 10 16.0934 N/A
12:55 am 00:55 Clear 9 -12.7 1 -17 70 70 SE 3 6 30.59 1036 10 16.0934 N/A
1:15 am 01:15 Clear 9 -12.8 1 -17.3 69 69 ENE 3 6 30.65 1038 10 16.0934 N/A
1:35 am 01:35 Clear 5 -15.2 -1 -18.3 77 77 Calm 30.65 1038 10 16.0934 N/A
1:55 am 01:55 Clear 5 -14.9 0 -17.9 78 78 Calm 30.65 1038 10 16.0934 N/A
2:15 am 02:15 Clear 5 -15.1 1 -17.5 82 82 Calm 30.65 1038 10 16.0934 N/A
2:35 am 02:35 Clear 5 -15.2 0 -17.6 82 82 Calm 30.65 1038 10 16.0934 N/A
2:55 am 02:55 Clear 4 -15.5 0 -18 81 81 Calm 30.62 1037 10 16.0934 N/A
3:15 am 03:15 Clear 5 -15.1 0 -17.7 81 81 Calm 30.62 1037 10 16.0934 N/A
3:35 am 03:35 Clear 4 -15.5 0 -17.8 83 83 Calm 30.62 1037 10 16.0934 N/A
3:55 am 03:55 Clear 4 -15.6 -1 -18.1 81 81 Calm 30.65 1038 10 16.0934 N/A
4:15 am 04:15 Clear 4 -15.8 -1 -18.2 82 82 Calm 30.65 1038 10 16.0934 N/A
4:35 am 04:35 Clear 4 -15.8 -1 -18.1 83 83 Calm 30.65 1038 10 16.0934 N/A
4:55 am 04:55 Clear 2 -16.5 -2 -18.8 83 83 Calm 30.65 1038 10 16.0934 N/A
5:15 am 05:15 Clear 3 -16.2 -1 -18.5 83 83 Calm 30.65 1038 10 16.0934 N/A
5:35 am 05:35 Clear 2 -16.5 -2 -18.9 82 82 Calm 30.65 1038 10 16.0934 N/A
5:55 am 05:55 Clear 3 -16.2 -1 -18.6 82 82 Calm 30.65 1038 10 16.0934 N/A
6:15 am 06:15 Clear 3 -16.2 -1 -18.6 82 82 Calm 30.65 1038 10 16.0934 N/A
6:35 am 06:35 Clear 2 -16.7 -2 -19 83 83 S 5 7 30.65 1038 10 16.0934 N/A
6:55 am 06:55 Clear 3 -16 -1 -18.3 83 83 Calm 30.65 1038 10 16.0934 N/A
7:15 am 07:15 Sunny 2 -16.8 -3 -19.2 82 82 Calm 30.65 1038 10 16.0934 N/A
7:35 am 07:35 Sunny 3 -16 -1 -18.3 83 83 S 3 6 30.65 1038 10 16.0934 N/A
7:55 am 07:55 Sunny 8 -13.5 2 -16.6 78 78 S 3 6 30.65 1038 10 16.0934 N/A
8:15 am 08:15 Sunny 11 -11.9 3 -16 72 72 S 9 15 30.62 1037 10 16.0934 N/A
8:35 am 08:35 Sunny 13 -10.5 4 -15.3 68 68 S 12 19 30.59 1036 10 16.0934 N/A
8:55 am 08:55 Sunny 14 -9.8 4 -15.3 65 65 S 16 26 30.59 1036 10 16.0934 N/A
9:15 am 09:15 Sunny 16 -9 5 -14.8 63 63 S 15 24 30.59 1036 10 16.0934 N/A
9:35 am 09:35 Sunny 17 -8.2 5 -14.8 59 59 S 14 22 30.59 1036 10 16.0934 N/A
9:55 am 09:55 Sunny 18 -7.7 6 -14.7 58 58 SSE 13 20 30.59 1036 10 16.0934 N/A
11:15 am 11:15 Sunny 25 -3.7 9 -12.8 50 50 SSW 9 15 30.5 1033 10 16.0934 N/A
11:35 am 11:35 Sunny 27 -2.8 10 -12.2 49 49 SW 12 19 30.5 1033 10 16.0934 N/A
11:55 am 11:55 Sunny 29 -1.9 11 -11.9 47 47 SSW 9 15 30.48 1032 10 16.0934 N/A
12:35 pm 12:35 Sunny 32 0 11 -11.6 42 42 SSW 12 19 30.45 1031 10 16.0934 N/A
12:55 pm 12:55 Sunny 34 0.9 11 -11.4 40 40 SSW 14 22 30.39 1029 10 16.0934 N/A
1:15 pm 13:15 Sunny 35 1.7 11 -11.9 36 36 SSW 8 13 30.39 1029 10 16.0934 N/A
1:35 pm 13:35 Sunny 37 2.6 11 -11.9 34 34 SW 15 24 30.33 1027 10 16.0934 N/A
1:55 pm 13:55 Sunny 38 3.5 10 -12.4 30 30 SSW 15 24 30.33 1027 10 16.0934 N/A
2:15 pm 14:15 Sunny 40 4.4 11 -11.9 30 30 SSW 16 26 30.33 1027 10 16.0934 N/A
2:35 pm 14:35 Sunny 41 5.1 11 -11.9 28 28 SW 14 22 30.33 1027 10 16.0934 N/A
2:55 pm 14:55 Sunny 42 5.7 11 -11.4 28 28 SW 14 22 30.27 1025 10 16.0934 N/A
3:15 pm 15:15 Sunny 42 5.5 11 -11.6 28 28 SSW 14 22 30.27 1025 10 16.0934 N/A
3:35 pm 15:35 Partly Cloudy 42 5.8 11 -11.7 27 27 SSW 13 20 30.27 1025 10 16.0934 N/A
3:55 pm 15:55 Partly Cloudy 42 5.7 10 -12 27 27 S 10 17 30.27 1025 10 16.0934 N/A
4:15 pm 16:15 Sunny 43 6.3 11 -11.5 27 27 S 10 17 30.24 1024 10 16.0934 N/A
4:35 pm 16:35 Sunny 46 8 10 -12 23 23 S 13 20 30.24 1024 10 16.0934 N/A
4:55 pm 16:55 Sunny 46 7.6 10 -12.5 23 23 SSW 14 22 30.24 1024 10 16.0934 N/A
5:15 pm 17:15 Sunny 46 7.5 10 -12.5 23 23 SSW 15 24 30.24 1024 10 16.0934 N/A
5:35 pm 17:35 Sunny 45 7 10 -12.5 24 24 S 12 19 30.24 1024 10 16.0934 N/A
5:55 pm 17:55 Sunny 44 6.5 10 -12.3 25 25 S 12 19 30.24 1024 10 16.0934 N/A
6:15 pm 18:15 Sunny 41 5.2 10 -12 28 28 S 10 17 30.27 1025 10 16.0934 N/A
6:35 pm 18:35 Clear 37 3 10 -12.2 32 32 S 10 17 30.27 1025 10 16.0934 N/A
6:55 pm 18:55 Clear 35 1.4 10 -12.3 36 36 S 9 15 30.3 1026 10 16.0934 N/A
7:15 pm 19:15 Clear 35 1.6 10 -12.5 35 35 S 10 17 30.3 1026 10 16.0934 N/A
7:35 pm 19:35 Clear 34 1 10 -12 38 38 S 12 19 30.3 1026 10 16.0934 N/A
7:55 pm 19:55 Clear 34 1 10 -12.1 37 37 S 12 19 30.3 1026 10 16.0934 N/A
8:15 pm 20:15 Clear 35 1.7 9 -12.7 34 34 S 13 20 30.3 1026 10 16.0934 N/A
8:35 pm 20:35 Clear 34 1.3 8 -13.1 34 34 S 12 19 30.3 1026 10 16.0934 N/A
8:55 pm 20:55 Clear 33 0.6 8 -13.5 34 34 S 7 11 30.3 1026 10 16.0934 N/A
9:15 pm 21:15 Clear 34 1.2 8 -13.3 33 33 SSW 12 19 30.3 1026 10 16.0934 N/A
9:35 pm 21:35 Clear 32 0 9 -12.8 38 38 SW 7 11 30.3 1026 10 16.0934 N/A
9:55 pm 21:55 Clear 27 -2.9 9 -12.8 47 47 Calm 30.33 1027 10 16.0934 N/A
10:15 pm 22:15 Clear 27 -2.9 10 -12.4 48 48 Calm 30.33 1027 10 16.0934 N/A
10:35 pm 22:35 Clear 24 -4.4 10 -12.1 55 55 NW 5 7 30.36 1028 10 16.0934 N/A
10:55 pm 22:55 Clear 21 -6 11 -11.7 64 64 NW 6 9 30.36 1028 10 16.0934 N/A
11:15 pm 23:15 Clear 22 -5.5 12 -11 66 66 WNW 8 13 30.36 1028 10 16.0934 N/A
11:35 pm 23:35 Clear 22 -5.5 13 -10.6 68 68 NW 9 15 30.36 1028 10 16.0934 N/A
11:55 pm 23:55 Clear 23 -5.1 13 -10.6 66 66 NW 8 13 30.36 1028 10 16.0934 N/A

Powered by AerisWeather